• MPC Preparation (Info)

  • MPEC 2022-V166 : 2022 VJ2

    The following Minor Planet Electronic Circular may be linked-to from your own Web pages, but must not otherwise be redistributed electronically.

    A form allowing access to any MPEC is at the bottom of this page.


    Read MPEC 2022-V165 Read MPEC 2022-V167


    M.P.E.C. 2022-V166                            Issued 2022 November 15, 13:01 UT
    
         The Minor Planet Electronic Circulars contain information on unusual
             minor planets, routine data on comets and natural satellites,
             and occasional editorial announcements.  They are published
        on behalf of Division F of the International Astronomical Union by the
              Minor Planet Center, Smithsonian Astrophysical Observatory,
                              Cambridge, MA 02138, U.S.A.
    			  
                 Prepared using the Tamkin Foundation Computer Network
    
                                  MPC@CFA.HARVARD.EDU
                URL https://www.minorplanetcenter.net/    ISSN 1523-6714
    
                                    2022 VJ2                                 
    
    
    Observations:
         K22V02J  C2022 10 18.37902001 25 07.639-04 56 41.18         22.62GVEV166F51
         K22V02J  C2022 10 18.39089301 25 06.911-04 56 34.70         22.89GVEV166F51
         K22V02J  C2022 10 18.40274501 25 06.171-04 56 27.90         22.68GVEV166F51
         K22V02J  C2022 10 24.39349501 19 40.276-03 41 20.90         21.80GVEV166F52
         K22V02J  C2022 10 24.40441201 19 39.460-03 41 10.61         22.13GVEV166F52
         K22V02J  C2022 10 24.42625601 19 37.824-03 40 49.16         22.88GVEV166F52
         K22V02J* C2022 11 14.22470500 56 26.169+08 43 13.90         21.25wUEV166F52
         K22V02J  C2022 11 14.23608400 56 25.166+08 43 57.25         22.10wUEV166F52
         K22V02J  C2022 11 14.25897200 56 23.148+08 45 24.87         22.01wUEV166F52
         K22V02J  C2022 11 14.35099100 56 14.754+08 51 16.17         21.59GVEV166F51
         K22V02J  C2022 11 14.35163200 56 14.689+08 51 18.60         21.28GVEV166F51
         K22V02J 1C2022 11 14.85688 00 55 42.01 +09 23 26.9          21.1 VXEV166033
         K22V02J 1C2022 11 14.86047 00 55 41.76 +09 23 40.6          21.4 VXEV166033
         K22V02J 1C2022 11 14.86405 00 55 41.44 +09 23 54.7          21.3 VXEV166033
         K22V02J |C2022 11 15.08930 00 55 26.68 +09 40 10.6          21.2 GVEV166807
         K22V02J |C2022 11 15.09855 00 55 25.82 +09 40 47.4          21.5 GVEV166807
         K22V02J |C2022 11 15.10780 00 55 25.03 +09 41 24.2          21.4 GVEV166807
    
    Observer details:
    033 Karl Schwarzschild Observatory, Tautenburg.  Observers S. Melnikov, C.
        Hoegner, F. Ludwig, B. Stecklum.  Measurer B. Stecklum.  1.34-m f/3
        Schmidt + CCD.
    807 Cerro Tololo Observatory, La Serena.  Observers T. Linder, R. Holmes, L.
        Horn.  1.00-m f/10.0 astrograph + CCD.
    F51 Pan-STARRS 1, Haleakala.  Observers J. Bulger, K. Chambers, T. Lowe, A.
        Schultz, I. Smith.  Measurers S. Chastel, J. Fairlamb, M. Huber, Y.
        Ramanjooloo, R. Wainscoat, R. Weryk.  1.8-m Ritchey-Chretien + CCD.
    F52 Pan-STARRS 2, Haleakala.  Observers J. Bulger, K. Chambers, T. Dukes, T.
        Lowe, A. Schultz, I. Smith.  Measurers S. Chastel, J. Fairlamb, M. Huber,
        Y. Ramanjooloo, R. Wainscoat, R. Weryk, K. Chambers, T. de Boer, H. Gao,
        C.-C. Lin, E. Magnier.  1.8-m Ritchey-Chretien + CCD.
    
    Orbital elements:
    2022 VJ2                                                 Earth MOID = 0.0771 AU
    Epoch 2022 Aug. 9.0 TT = JDT 2459800.5                  Veres                   
    M 321.75735              (2000.0)            P               Q                  
    n   0.29571445     Peri.   38.20786     +0.12212324     -0.98858289             
    a   2.2312814      Node    44.97498     +0.87713065     +0.06588409             
    e   0.5377379      Incl.    7.17340     +0.46446500     +0.13551073             
    P   3.33           H   24.49          G   0.15           U   6                  
    Residuals in seconds of arc
    221018 F51  0.0   0.1+    221114 F52  0.1-  0.2+    221114 033  0.5+  0.0
    221018 F51  0.0   0.1-    221114 F52  0.2-  0.0     221114 033  0.2+  0.0
    221018 F51  0.1-  0.0     221114 F52  0.0   0.0     221115 807  0.1+  0.0
    221024 F52  0.0   0.0     221114 F51  0.1+  0.0     221115 807  0.3-  0.0
    221024 F52  0.0   0.2-    221114 F51  0.0   0.1-    221115 807  0.3+  0.0
    221024 F52  0.0   0.2+    221114 033  0.2-  0.4+
    
    Ephemeris:
    2022 VJ2                 a,e,i = 2.23, 0.54, 7                   q = 1.0314
    Date    TT    R. A. (2000) Decl.     Delta      r    Elong.  Phase     V
    2022 10 16    01 26 56.9 -05 16 28   0.2753  1.2659   166.0    11.0    22.9
    ...
    2022 10 31    01 12 38.6 -01 23 37   0.1945  1.1750   157.4    18.9    22.3
    ...
    2022 11 08    01 03 28.3 +03 12 37   0.1601  1.1329   150.4    25.6    22.0
    ...
    2022 11 14    00 56 38.7 +08 29 19   0.1378  1.1052   145.0    30.9    21.7
    2022 11 15    00 55 32.7 +09 33 31   0.1344  1.1010   144.1    31.8    21.7
    2022 11 16    00 54 27.6 +10 41 23   0.1311  1.0968   143.2    32.7    21.7
    ...
    2022 11 22    00 48 25.6 +18 54 15   0.1132  1.0743   137.7    38.3    21.4
    ...
    2022 11 30    00 42 38.9 +34 12 48   0.09593 1.0511   130.4    45.6    21.2
    ...
    2022 12 15    00 56 24.3 +71 52 03   0.09144 1.0316   118.8    56.7    21.4
    
    M. P. C. Staff               (C) Copyright 2022 MPC           M.P.E.C. 2022-V166
    


    Read MPEC 2022-V165 Read MPEC 2022-V167


    MPEC number:

    Enter an MPEC number in one of the following forms:

    • 1997-B01 (the full form)
    • J97B01 (the packed version of the full form)
    • B01 (the abbreviated form)